CET,Max TemperatureF,Mean TemperatureF,Min TemperatureF,Max Dew PointF,MeanDew PointF,Min DewpointF,Max Humidity, Mean Humidity, Min Humidity, Max Sea Level PressureIn, Mean Sea Level PressureIn, Min Sea Level PressureIn, Max VisibilityMiles, Mean VisibilityMiles, Min VisibilityMiles, Max Wind SpeedMPH, Mean Wind SpeedMPH, Max Gust SpeedMPH,PrecipitationIn, CloudCover, Events, WindDirDegrees
2012-10-1,66,58,50,55,50,43,88,75,64,30.15,30.07,30.04,6,6,6,12,6,,0.00,5,,98
2012-10-2,59,54,50,52,50,48,100,86,72,30.09,30.08,30.06,6,6,5,10,4,,0.00,7,,313
2012-10-3,68,57,46,48,45,41,94,69,40,30.06,30.05,30.04,,,,10,6,,0.00,,,283
2012-10-4,64,57,50,54,48,45,87,72,59,30.04,29.98,29.86,6,5,4,22,6,31,0.00,5,Rain,189
2012-10-5,62,52,41,50,44,39,93,77,52,30.12,30.07,30.01,,,,18,10,,0.00,,,212
2012-10-6,75,63,51,52,48,45,88,62,34,30.04,30.00,29.92,,,,17,8,,0.00,,,221
2012-10-7,60,51,42,55,47,41,100,85,55,30.09,29.94,29.83,6,5,3,18,10,30,0.00,7,Rain,279
2012-10-8,50,44,39,43,37,34,93,78,58,30.15,30.11,30.01,6,6,6,12,8,,0.00,5,,293
2012-10-9,55,46,37,46,40,36,93,82,67,29.98,29.86,29.80,6,6,6,9,3,,0.00,5,,180
2012-10-10,50,42,35,39,36,34,93,77,58,29.98,29.94,29.92,6,6,6,9,6,,0.00,6,,320
2012-10-11,51,43,35,37,35,32,93,77,50,30.01,29.97,29.92,6,6,6,8,5,,0.00,3,,8
2012-10-12,46,42,39,45,40,36,100,86,76,29.92,29.91,29.89,6,5,1,10,6,,0.00,7,Rain,111
2012-10-13,55,48,42,48,41,37,100,80,51,30.04,29.96,29.83,6,5,4,12,6,,0.00,5,Rain,253
2012-10-14,55,48,42,48,45,43,100,88,71,29.80,29.73,29.62,6,5,1,12,6,,0.00,5,,128
2012-10-15,60,52,44,52,48,39,100,87,68,29.89,29.68,29.59,6,6,4,17,10,,0.00,7,,172
2012-10-16,44,42,41,43,41,39,100,93,81,29.92,29.87,29.83,6,5,3,15,9,,0.00,8,Rain,313
2012-10-17,53,45,37,46,41,36,100,87,67,30.12,30.06,29.95,6,5,2,9,6,,0.00,4,Fog,152
2012-10-18,55,50,46,52,48,46,100,92,82,30.15,30.10,30.06,6,4,0,13,7,,0.00,6,Fog,117
2012-10-19,60,53,46,50,46,43,94,79,63,30.15,30.11,30.09,,,,8,5,,0.00,,,109
2012-10-20,62,54,46,54,49,45,100,89,68,30.12,30.11,30.09,6,3,1,7,5,,0.00,,Fog,20
2012-10-21,51,46,41,52,47,41,100,99,93,30.15,30.12,30.09,1,0,0,7,4,,0.00,7,Fog,100
2012-10-22,55,52,48,50,49,46,100,96,82,30.24,30.19,30.15,4,1,0,6,3,,0.00,7,Fog,103
2012-10-23,48,44,39,48,44,39,100,99,93,30.27,30.24,30.21,3,1,0,7,4,,0.00,8,Fog,27
2012-10-24,51,48,44,46,44,43,100,90,82,30.21,30.12,30.06,5,3,2,6,4,,0.00,7,,326
2012-10-25,46,44,42,45,44,43,100,96,87,30.04,29.92,29.83,6,4,1,10,5,,0.00,8,,292
2012-10-26,46,42,39,45,36,32,93,78,66,29.86,29.78,29.56,6,6,4,10,7,,0.00,7,,15
2012-10-27,39,34,30,39,35,28,100,98,93,29.53,29.35,29.18,6,2,0,14,9,,0.00,8,Fog-Rain-Snow,31
2012-10-28,35,32,28,30,27,27,93,86,70,29.92,29.73,29.53,6,5,1,16,11,24,0.00,7,Snow,342
2012-10-29,33,32,30,28,27,23,93,81,65,29.92,29.88,29.86,6,5,1,14,9,,0.00,8,Snow,343
2012-10-30,41,32,24,34,29,25,100,85,65,29.83,29.75,29.71,6,6,5,9,5,,0.00,7,Rain-Snow,231
2012-10-31,42,38,33,36,34,32,100,90,76,29.80,29.75,29.65,6,5,1,21,7,,0.00,6,,134